Location: Beetenbrück
(52.8113°N, 9.5946°E)
Time: 21:29:31
(UTC+00:00)

SeaSat 1 - Pass Details

Date: 14 April 2026
Orbit: 736 x 740 km, 108.0° (Epoch: 12 May)

Event Time Altitude Azimuth Distance (km) Brightness Sun altitude
Exits shadow 21:22:39 56° 124° (SE) 876 2.4 -22.5°
Maximum altitude 21:23:39 77° 55° (NE) 765 2.4 -22.6°
Drops below altitude 10° 21:28:33 10° 330° (NNW) 2,261 6.1 -23.0°
Sets 21:30:50 0° 330° (NNW) 3,188 7.2 -23.2°
